owner,sensor,date,latitude,longitude,air_pressure(mBar),qcFlag 
WAVCIS,ioos:station:WAVCIS:CSI06:1,2013-01-01T00:00:00Z,28.8667,-90.4833,1020.83,11111222 
WAVCIS,ioos:station:WAVCIS:CSI06:1,2013-01-01T01:00:00Z,28.8667,-90.4833,1020.59,11111222 
WAVCIS,ioos:station:WAVCIS:CSI06:1,2013-01-01T02:00:00Z,28.8667,-90.4833,1020.25,11111222 
WAVCIS,ioos:station:WAVCIS:CSI06:1,2013-01-01T03:00:00Z,28.8667,-90.4833,1019.96,11111222 
WAVCIS,ioos:station:WAVCIS:CSI06:1,2013-01-01T04:00:00Z,28.8667,-90.4833,1019.92,11111222 
WAVCIS,ioos:station:WAVCIS:CSI06:1,2013-01-01T05:00:00Z,28.8667,-90.4833,1019.47,11111222 
WAVCIS,ioos:station:WAVCIS:CSI06:1,2013-01-01T06:00:00Z,28.8667,-90.4833,1019.17,11111222 
WAVCIS,ioos:station:WAVCIS:CSI06:1,2013-01-01T07:00:00Z,28.8667,-90.4833,1018.16,11111222 
WAVCIS,ioos:station:WAVCIS:CSI06:1,2013-01-01T08:00:00Z,28.8667,-90.4833,1017.95,11111222 
WAVCIS,ioos:station:WAVCIS:CSI06:1,2013-01-01T09:00:00Z,28.8667,-90.4833,1017.41,11111222 
WAVCIS,ioos:station:WAVCIS:CSI06:1,2013-01-01T10:00:00Z,28.8667,-90.4833,1016.98,11111222 
WAVCIS,ioos:station:WAVCIS:CSI06:1,2013-01-01T11:00:00Z,28.8667,-90.4833,1016.73,11111222 
WAVCIS,ioos:station:WAVCIS:CSI06:1,2013-01-01T12:00:00Z,28.8667,-90.4833,1016.39,11111222 
WAVCIS,ioos:station:WAVCIS:CSI06:1,2013-01-01T13:00:00Z,28.8667,-90.4833,1016.32,11111222 
WAVCIS,ioos:station:WAVCIS:CSI06:1,2013-01-01T14:00:00Z,28.8667,-90.4833,1016.67,11111222 
WAVCIS,ioos:station:WAVCIS:CSI06:1,2013-01-01T15:00:00Z,28.8667,-90.4833,1017.21,11111222 
WAVCIS,ioos:station:WAVCIS:CSI06:1,2013-01-01T16:00:00Z,28.8667,-90.4833,1017.06,11111222 
WAVCIS,ioos:station:WAVCIS:CSI06:1,2013-01-01T17:00:00Z,28.8667,-90.4833,1016.74,11111222 
WAVCIS,ioos:station:WAVCIS:CSI06:1,2013-01-01T18:00:00Z,28.8667,-90.4833,1015.33,11111222 
WAVCIS,ioos:station:WAVCIS:CSI06:1,2013-01-01T19:00:00Z,28.8667,-90.4833,1014.04,11111222 
WAVCIS,ioos:station:WAVCIS:CSI06:1,2013-01-01T20:00:00Z,28.8667,-90.4833,1013.74,11111222 
WAVCIS,ioos:station:WAVCIS:CSI06:1,2013-01-01T21:00:00Z,28.8667,-90.4833,1013.87,11111222 
WAVCIS,ioos:station:WAVCIS:CSI06:1,2013-01-01T22:00:00Z,28.8667,-90.4833,1013.95,11111222 
WAVCIS,ioos:station:WAVCIS:CSI06:1,2013-01-01T23:00:00Z,28.8667,-90.4833,1014.22,11111222 
WAVCIS,ioos:station:WAVCIS:CSI06:1,2013-01-02T00:00:00Z,28.8667,-90.4833,1014.49,11111222 
WAVCIS,ioos:station:WAVCIS:CSI06:1,2013-01-02T01:00:00Z,28.8667,-90.4833,1015.65,11111222 
WAVCIS,ioos:station:WAVCIS:CSI06:1,2013-01-02T02:00:00Z,28.8667,-90.4833,1016.46,11111222 
WAVCIS,ioos:station:WAVCIS:CSI06:1,2013-01-02T03:00:00Z,28.8667,-90.4833,1017.16,11111222 
WAVCIS,ioos:station:WAVCIS:CSI06:1,2013-01-02T04:00:00Z,28.8667,-90.4833,1017.72,11111222 
WAVCIS,ioos:station:WAVCIS:CSI06:1,2013-01-02T05:00:00Z,28.8667,-90.4833,1017.96,11111222 
WAVCIS,ioos:station:WAVCIS:CSI06:1,2013-01-02T06:00:00Z,28.8667,-90.4833,1018.02,11111222 
WAVCIS,ioos:station:WAVCIS:CSI06:1,2013-01-02T07:00:00Z,28.8667,-90.4833,1017.89,11111222 
WAVCIS,ioos:station:WAVCIS:CSI06:1,2013-01-02T08:00:00Z,28.8667,-90.4833,1017.73,11111222 
WAVCIS,ioos:station:WAVCIS:CSI06:1,2013-01-02T09:00:00Z,28.8667,-90.4833,1018.17,11111222 
WAVCIS,ioos:station:WAVCIS:CSI06:1,2013-01-02T10:00:00Z,28.8667,-90.4833,1018.31,11111222 
WAVCIS,ioos:station:WAVCIS:CSI06:1,2013-01-02T11:00:00Z,28.8667,-90.4833,1018.28,11111222 
WAVCIS,ioos:station:WAVCIS:CSI06:1,2013-01-02T12:00:00Z,28.8667,-90.4833,1018.93,11111222 
WAVCIS,ioos:station:WAVCIS:CSI06:1,2013-01-02T13:00:00Z,28.8667,-90.4833,1020.06,11111222 
WAVCIS,ioos:station:WAVCIS:CSI06:1,2013-01-02T14:00:00Z,28.8667,-90.4833,1020.68,11111222 
WAVCIS,ioos:station:WAVCIS:CSI06:1,2013-01-02T15:00:00Z,28.8667,-90.4833,1021.13,11111222 
WAVCIS,ioos:station:WAVCIS:CSI06:1,2013-01-02T16:00:00Z,28.8667,-90.4833,1021.6,11111222 
WAVCIS,ioos:station:WAVCIS:CSI06:1,2013-01-02T17:00:00Z,28.8667,-90.4833,1021.76,11111222 
WAVCIS,ioos:station:WAVCIS:CSI06:1,2013-01-02T18:00:00Z,28.8667,-90.4833,1020.56,11111222 
WAVCIS,ioos:station:WAVCIS:CSI06:1,2013-01-02T19:00:00Z,28.8667,-90.4833,1019.94,11111222 
WAVCIS,ioos:station:WAVCIS:CSI06:1,2013-01-02T20:00:00Z,28.8667,-90.4833,1019.85,11111222 
WAVCIS,ioos:station:WAVCIS:CSI06:1,2013-01-02T21:00:00Z,28.8667,-90.4833,1020.8,11111222 
WAVCIS,ioos:station:WAVCIS:CSI06:1,2013-01-02T22:00:00Z,28.8667,-90.4833,1020.53,11111222 
WAVCIS,ioos:station:WAVCIS:CSI06:1,2013-01-02T23:00:00Z,28.8667,-90.4833,1021.0,11111222 
WAVCIS,ioos:station:WAVCIS:CSI06:1,2013-01-03T00:00:00Z,28.8667,-90.4833,1020.43,11111222 
WAVCIS,ioos:station:WAVCIS:CSI06:1,2013-01-03T01:00:00Z,28.8667,-90.4833,1021.98,11111222 
WAVCIS,ioos:station:WAVCIS:CSI06:1,2013-01-03T02:00:00Z,28.8667,-90.4833,1021.58,11111222 
WAVCIS,ioos:station:WAVCIS:CSI06:1,2013-01-03T03:00:00Z,28.8667,-90.4833,1021.89,11111222 
WAVCIS,ioos:station:WAVCIS:CSI06:1,2013-01-03T04:00:00Z,28.8667,-90.4833,1023.29,11111222 
WAVCIS,ioos:station:WAVCIS:CSI06:1,2013-01-03T05:00:00Z,28.8667,-90.4833,1023.2,11111222 
WAVCIS,ioos:station:WAVCIS:CSI06:1,2013-01-03T06:00:00Z,28.8667,-90.4833,1023.17,11111222 
WAVCIS,ioos:station:WAVCIS:CSI06:1,2013-01-03T07:00:00Z,28.8667,-90.4833,1022.97,11111222 
WAVCIS,ioos:station:WAVCIS:CSI06:1,2013-01-03T08:00:00Z,28.8667,-90.4833,1023.19,11111222 
WAVCIS,ioos:station:WAVCIS:CSI06:1,2013-01-03T09:00:00Z,28.8667,-90.4833,1022.34,11111222 
WAVCIS,ioos:station:WAVCIS:CSI06:1,2013-01-03T10:00:00Z,28.8667,-90.4833,1022.72,11111222 
WAVCIS,ioos:station:WAVCIS:CSI06:1,2013-01-03T11:00:00Z,28.8667,-90.4833,1023.06,11111222 
WAVCIS,ioos:station:WAVCIS:CSI06:1,2013-01-03T12:00:00Z,28.8667,-90.4833,1023.98,11111222 
WAVCIS,ioos:station:WAVCIS:CSI06:1,2013-01-03T13:00:00Z,28.8667,-90.4833,1024.09,11111222 
WAVCIS,ioos:station:WAVCIS:CSI06:1,2013-01-03T14:00:00Z,28.8667,-90.4833,1025.19,11111222 
WAVCIS,ioos:station:WAVCIS:CSI06:1,2013-01-03T15:00:00Z,28.8667,-90.4833,1026.13,11111222 
WAVCIS,ioos:station:WAVCIS:CSI06:1,2013-01-03T16:00:00Z,28.8667,-90.4833,1026.2,11111222 
WAVCIS,ioos:station:WAVCIS:CSI06:1,2013-01-03T17:00:00Z,28.8667,-90.4833,1026.16,11111222 
WAVCIS,ioos:station:WAVCIS:CSI06:1,2013-01-03T18:00:00Z,28.8667,-90.4833,1025.38,11111222 
WAVCIS,ioos:station:WAVCIS:CSI06:1,2013-01-03T19:00:00Z,28.8667,-90.4833,1024.6,11111222 
WAVCIS,ioos:station:WAVCIS:CSI06:1,2013-01-03T20:00:00Z,28.8667,-90.4833,1024.45,11111222 
WAVCIS,ioos:station:WAVCIS:CSI06:1,2013-01-03T21:00:00Z,28.8667,-90.4833,1024.43,11111222 
WAVCIS,ioos:station:WAVCIS:CSI06:1,2013-01-03T22:00:00Z,28.8667,-90.4833,1025.29,11111222 
WAVCIS,ioos:station:WAVCIS:CSI06:1,2013-01-03T23:00:00Z,28.8667,-90.4833,1025.83,11111222 
WAVCIS,ioos:station:WAVCIS:CSI06:1,2013-01-04T00:00:00Z,28.8667,-90.4833,1026.53,11111222 
WAVCIS,ioos:station:WAVCIS:CSI06:1,2013-01-04T01:00:00Z,28.8667,-90.4833,1027.23,11111222 
WAVCIS,ioos:station:WAVCIS:CSI06:1,2013-01-04T02:00:00Z,28.8667,-90.4833,1027.95,11111222 
WAVCIS,ioos:station:WAVCIS:CSI06:1,2013-01-04T03:00:00Z,28.8667,-90.4833,1028.43,11111222 
WAVCIS,ioos:station:WAVCIS:CSI06:1,2013-01-04T04:00:00Z,28.8667,-90.4833,1028.27,11111222 
WAVCIS,ioos:station:WAVCIS:CSI06:1,2013-01-04T05:00:00Z,28.8667,-90.4833,1028.24,11111222 
WAVCIS,ioos:station:WAVCIS:CSI06:1,2013-01-04T06:00:00Z,28.8667,-90.4833,1028.34,11111222 
WAVCIS,ioos:station:WAVCIS:CSI06:1,2013-01-04T07:00:00Z,28.8667,-90.4833,1027.82,11111222 
WAVCIS,ioos:station:WAVCIS:CSI06:1,2013-01-04T08:00:00Z,28.8667,-90.4833,1027.55,11111222 
WAVCIS,ioos:station:WAVCIS:CSI06:1,2013-01-04T09:00:00Z,28.8667,-90.4833,1027.77,11111222 
WAVCIS,ioos:station:WAVCIS:CSI06:1,2013-01-04T10:00:00Z,28.8667,-90.4833,1027.0,11111222 
WAVCIS,ioos:station:WAVCIS:CSI06:1,2013-01-04T11:00:00Z,28.8667,-90.4833,1027.34,11111222 
WAVCIS,ioos:station:WAVCIS:CSI06:1,2013-01-04T12:00:00Z,28.8667,-90.4833,1027.3,11111222 
WAVCIS,ioos:station:WAVCIS:CSI06:1,2013-01-04T13:00:00Z,28.8667,-90.4833,1028.2,11111222 
WAVCIS,ioos:station:WAVCIS:CSI06:1,2013-01-04T14:00:00Z,28.8667,-90.4833,1029.61,11111222 
WAVCIS,ioos:station:WAVCIS:CSI06:1,2013-01-04T15:00:00Z,28.8667,-90.4833,1029.29,11111222 
WAVCIS,ioos:station:WAVCIS:CSI06:1,2013-01-04T16:00:00Z,28.8667,-90.4833,1030.41,11111222 
WAVCIS,ioos:station:WAVCIS:CSI06:1,2013-01-04T17:00:00Z,28.8667,-90.4833,1030.2,11111222 
WAVCIS,ioos:station:WAVCIS:CSI06:1,2013-01-04T18:00:00Z,28.8667,-90.4833,1029.01,11111222 
WAVCIS,ioos:station:WAVCIS:CSI06:1,2013-01-04T19:00:00Z,28.8667,-90.4833,1028.35,11111222 
WAVCIS,ioos:station:WAVCIS:CSI06:1,2013-01-04T20:00:00Z,28.8667,-90.4833,1027.72,11111222 
WAVCIS,ioos:station:WAVCIS:CSI06:1,2013-01-04T21:00:00Z,28.8667,-90.4833,1026.98,11111222 
WAVCIS,ioos:station:WAVCIS:CSI06:1,2013-01-04T22:00:00Z,28.8667,-90.4833,1027.09,11111222 
WAVCIS,ioos:station:WAVCIS:CSI06:1,2013-01-04T23:00:00Z,28.8667,-90.4833,1027.94,11111222 
WAVCIS,ioos:station:WAVCIS:CSI06:1,2013-01-05T00:00:00Z,28.8667,-90.4833,1028.47,11111222 
WAVCIS,ioos:station:WAVCIS:CSI06:1,2013-01-05T01:00:00Z,28.8667,-90.4833,1028.78,11111222 
WAVCIS,ioos:station:WAVCIS:CSI06:1,2013-01-05T02:00:00Z,28.8667,-90.4833,1028.93,11111222 
WAVCIS,ioos:station:WAVCIS:CSI06:1,2013-01-05T03:00:00Z,28.8667,-90.4833,1028.6,11111222 
WAVCIS,ioos:station:WAVCIS:CSI06:1,2013-01-05T04:00:00Z,28.8667,-90.4833,1028.35,11111222 
WAVCIS,ioos:station:WAVCIS:CSI06:1,2013-01-05T05:00:00Z,28.8667,-90.4833,1027.45,11111222 
WAVCIS,ioos:station:WAVCIS:CSI06:1,2013-01-05T06:00:00Z,28.8667,-90.4833,1026.61,11111222 
WAVCIS,ioos:station:WAVCIS:CSI06:1,2013-01-05T07:00:00Z,28.8667,-90.4833,1026.61,11111222 
WAVCIS,ioos:station:WAVCIS:CSI06:1,2013-01-05T08:00:00Z,28.8667,-90.4833,1026.05,11111222 
WAVCIS,ioos:station:WAVCIS:CSI06:1,2013-01-05T09:00:00Z,28.8667,-90.4833,1025.22,11111222 
WAVCIS,ioos:station:WAVCIS:CSI06:1,2013-01-05T10:00:00Z,28.8667,-90.4833,1025.18,11111222 
WAVCIS,ioos:station:WAVCIS:CSI06:1,2013-01-05T11:00:00Z,28.8667,-90.4833,1024.73,11111222 
WAVCIS,ioos:station:WAVCIS:CSI06:1,2013-01-05T12:00:00Z,28.8667,-90.4833,1024.49,11111222 
WAVCIS,ioos:station:WAVCIS:CSI06:1,2013-01-05T13:00:00Z,28.8667,-90.4833,1025.44,11111222 
WAVCIS,ioos:station:WAVCIS:CSI06:1,2013-01-05T14:00:00Z,28.8667,-90.4833,1026.19,11111222 
WAVCIS,ioos:station:WAVCIS:CSI06:1,2013-01-05T15:00:00Z,28.8667,-90.4833,1026.17,11111222 
WAVCIS,ioos:station:WAVCIS:CSI06:1,2013-01-05T16:00:00Z,28.8667,-90.4833,1026.57,11111222 
WAVCIS,ioos:station:WAVCIS:CSI06:1,2013-01-05T17:00:00Z,28.8667,-90.4833,1026.03,11111222 
WAVCIS,ioos:station:WAVCIS:CSI06:1,2013-01-05T18:00:00Z,28.8667,-90.4833,1024.16,11111222 
WAVCIS,ioos:station:WAVCIS:CSI06:1,2013-01-05T19:00:00Z,28.8667,-90.4833,1023.33,11111222 
WAVCIS,ioos:station:WAVCIS:CSI06:1,2013-01-05T20:00:00Z,28.8667,-90.4833,1023.42,11111222 
WAVCIS,ioos:station:WAVCIS:CSI06:1,2013-01-05T21:00:00Z,28.8667,-90.4833,1022.62,11111222 
WAVCIS,ioos:station:WAVCIS:CSI06:1,2013-01-05T22:00:00Z,28.8667,-90.4833,1022.57,11111222 
WAVCIS,ioos:station:WAVCIS:CSI06:1,2013-01-05T23:00:00Z,28.8667,-90.4833,1022.72,11111222 
WAVCIS,ioos:station:WAVCIS:CSI06:1,2013-01-06T00:00:00Z,28.8667,-90.4833,1022.7,11111222 
WAVCIS,ioos:station:WAVCIS:CSI06:1,2013-01-06T01:00:00Z,28.8667,-90.4833,1023.15,11111222 
WAVCIS,ioos:station:WAVCIS:CSI06:1,2013-01-06T02:00:00Z,28.8667,-90.4833,1023.37,11111222 
WAVCIS,ioos:station:WAVCIS:CSI06:1,2013-01-06T03:00:00Z,28.8667,-90.4833,1023.26,11111222 
WAVCIS,ioos:station:WAVCIS:CSI06:1,2013-01-06T04:00:00Z,28.8667,-90.4833,1023.44,11111222 
WAVCIS,ioos:station:WAVCIS:CSI06:1,2013-01-06T05:00:00Z,28.8667,-90.4833,1022.52,11111222 
WAVCIS,ioos:station:WAVCIS:CSI06:1,2013-01-06T06:00:00Z,28.8667,-90.4833,1022.21,11111222 
WAVCIS,ioos:station:WAVCIS:CSI06:1,2013-01-06T07:00:00Z,28.8667,-90.4833,1021.73,11111222 
WAVCIS,ioos:station:WAVCIS:CSI06:1,2013-01-06T08:00:00Z,28.8667,-90.4833,1021.08,11111222 
WAVCIS,ioos:station:WAVCIS:CSI06:1,2013-01-06T09:00:00Z,28.8667,-90.4833,1020.57,11111222 
WAVCIS,ioos:station:WAVCIS:CSI06:1,2013-01-06T10:00:00Z,28.8667,-90.4833,1019.94,11111222 
WAVCIS,ioos:station:WAVCIS:CSI06:1,2013-01-06T11:00:00Z,28.8667,-90.4833,1020.03,11111222 
WAVCIS,ioos:station:WAVCIS:CSI06:1,2013-01-06T12:00:00Z,28.8667,-90.4833,1020.05,11111222 
WAVCIS,ioos:station:WAVCIS:CSI06:1,2013-01-06T13:00:00Z,28.8667,-90.4833,1020.63,11111222 
WAVCIS,ioos:station:WAVCIS:CSI06:1,2013-01-06T14:00:00Z,28.8667,-90.4833,1021.74,11111222 
WAVCIS,ioos:station:WAVCIS:CSI06:1,2013-01-06T15:00:00Z,28.8667,-90.4833,1022.06,11111222 
WAVCIS,ioos:station:WAVCIS:CSI06:1,2013-01-06T16:00:00Z,28.8667,-90.4833,1022.94,11111222 
WAVCIS,ioos:station:WAVCIS:CSI06:1,2013-01-06T17:00:00Z,28.8667,-90.4833,1022.95,11111222 
WAVCIS,ioos:station:WAVCIS:CSI06:1,2013-01-06T18:00:00Z,28.8667,-90.4833,1022.3,11111222 
WAVCIS,ioos:station:WAVCIS:CSI06:1,2013-01-06T19:00:00Z,28.8667,-90.4833,1021.78,11111222 
WAVCIS,ioos:station:WAVCIS:CSI06:1,2013-01-06T20:00:00Z,28.8667,-90.4833,1021.47,11111222 
WAVCIS,ioos:station:WAVCIS:CSI06:1,2013-01-06T21:00:00Z,28.8667,-90.4833,1021.47,11111222 
WAVCIS,ioos:station:WAVCIS:CSI06:1,2013-01-06T22:00:00Z,28.8667,-90.4833,1021.88,11111222 
WAVCIS,ioos:station:WAVCIS:CSI06:1,2013-01-06T23:00:00Z,28.8667,-90.4833,1022.45,11111222 
WAVCIS,ioos:station:WAVCIS:CSI06:1,2013-01-07T00:00:00Z,28.8667,-90.4833,1023.17,11111222 
WAVCIS,ioos:station:WAVCIS:CSI06:1,2013-01-07T01:00:00Z,28.8667,-90.4833,1023.44,11111222 
WAVCIS,ioos:station:WAVCIS:CSI06:1,2013-01-07T02:00:00Z,28.8667,-90.4833,1023.89,11111222 
WAVCIS,ioos:station:WAVCIS:CSI06:1,2013-01-07T03:00:00Z,28.8667,-90.4833,1024.55,11111222 
WAVCIS,ioos:station:WAVCIS:CSI06:1,2013-01-07T04:00:00Z,28.8667,-90.4833,1024.69,11111222 
WAVCIS,ioos:station:WAVCIS:CSI06:1,2013-01-07T05:00:00Z,28.8667,-90.4833,1025.0,11111222 
WAVCIS,ioos:station:WAVCIS:CSI06:1,2013-01-07T06:00:00Z,28.8667,-90.4833,1024.67,11111222 
WAVCIS,ioos:station:WAVCIS:CSI06:1,2013-01-07T07:00:00Z,28.8667,-90.4833,1024.42,11111222 
WAVCIS,ioos:station:WAVCIS:CSI06:1,2013-01-07T08:00:00Z,28.8667,-90.4833,1024.33,11111222 
WAVCIS,ioos:station:WAVCIS:CSI06:1,2013-01-07T09:00:00Z,28.8667,-90.4833,1024.2,11111222 
WAVCIS,ioos:station:WAVCIS:CSI06:1,2013-01-07T10:00:00Z,28.8667,-90.4833,1023.87,11111222 
WAVCIS,ioos:station:WAVCIS:CSI06:1,2013-01-07T11:00:00Z,28.8667,-90.4833,1023.68,11111222 
WAVCIS,ioos:station:WAVCIS:CSI06:1,2013-01-07T12:00:00Z,28.8667,-90.4833,1023.57,11111222 
WAVCIS,ioos:station:WAVCIS:CSI06:1,2013-01-07T13:00:00Z,28.8667,-90.4833,1023.95,11111222 
WAVCIS,ioos:station:WAVCIS:CSI06:1,2013-01-07T14:00:00Z,28.8667,-90.4833,1024.62,11111222 
WAVCIS,ioos:station:WAVCIS:CSI06:1,2013-01-07T15:00:00Z,28.8667,-90.4833,1025.04,11111222 
WAVCIS,ioos:station:WAVCIS:CSI06:1,2013-01-07T16:00:00Z,28.8667,-90.4833,1025.7,11111222 
WAVCIS,ioos:station:WAVCIS:CSI06:1,2013-01-07T17:00:00Z,28.8667,-90.4833,1024.93,11111222 
WAVCIS,ioos:station:WAVCIS:CSI06:1,2013-01-07T18:00:00Z,28.8667,-90.4833,1023.96,11111222 
WAVCIS,ioos:station:WAVCIS:CSI06:1,2013-01-07T19:00:00Z,28.8667,-90.4833,1023.03,11111222 
WAVCIS,ioos:station:WAVCIS:CSI06:1,2013-01-07T20:00:00Z,28.8667,-90.4833,1022.32,11111222 
WAVCIS,ioos:station:WAVCIS:CSI06:1,2013-01-07T21:00:00Z,28.8667,-90.4833,1022.19,11111222 
WAVCIS,ioos:station:WAVCIS:CSI06:1,2013-01-07T22:00:00Z,28.8667,-90.4833,1022.55,11111222 
WAVCIS,ioos:station:WAVCIS:CSI06:1,2013-01-07T23:00:00Z,28.8667,-90.4833,1022.37,11111222 
WAVCIS,ioos:station:WAVCIS:CSI06:1,2013-01-08T00:00:00Z,28.8667,-90.4833,1022.23,11111222 
WAVCIS,ioos:station:WAVCIS:CSI06:1,2013-01-08T01:00:00Z,28.8667,-90.4833,1022.41,11111222 
WAVCIS,ioos:station:WAVCIS:CSI06:1,2013-01-08T02:00:00Z,28.8667,-90.4833,1022.23,11111222 
WAVCIS,ioos:station:WAVCIS:CSI06:1,2013-01-08T03:00:00Z,28.8667,-90.4833,1022.2,11111222 
WAVCIS,ioos:station:WAVCIS:CSI06:1,2013-01-08T04:00:00Z,28.8667,-90.4833,1021.98,11111222 
WAVCIS,ioos:station:WAVCIS:CSI06:1,2013-01-08T05:00:00Z,28.8667,-90.4833,1021.33,11111222 
WAVCIS,ioos:station:WAVCIS:CSI06:1,2013-01-08T06:00:00Z,28.8667,-90.4833,1020.64,11111222 
WAVCIS,ioos:station:WAVCIS:CSI06:1,2013-01-08T07:00:00Z,28.8667,-90.4833,1020.19,11111222 
WAVCIS,ioos:station:WAVCIS:CSI06:1,2013-01-08T08:00:00Z,28.8667,-90.4833,1019.33,11111222 
WAVCIS,ioos:station:WAVCIS:CSI06:1,2013-01-08T09:00:00Z,28.8667,-90.4833,1018.94,11111222 
WAVCIS,ioos:station:WAVCIS:CSI06:1,2013-01-08T10:00:00Z,28.8667,-90.4833,1018.61,11111222 
WAVCIS,ioos:station:WAVCIS:CSI06:1,2013-01-08T11:00:00Z,28.8667,-90.4833,1018.98,11111222 
WAVCIS,ioos:station:WAVCIS:CSI06:1,2013-01-08T12:00:00Z,28.8667,-90.4833,1018.86,11111222 
WAVCIS,ioos:station:WAVCIS:CSI06:1,2013-01-08T13:00:00Z,28.8667,-90.4833,1019.43,11111222 
WAVCIS,ioos:station:WAVCIS:CSI06:1,2013-01-08T14:00:00Z,28.8667,-90.4833,1020.09,11111222 
WAVCIS,ioos:station:WAVCIS:CSI06:1,2013-01-08T15:00:00Z,28.8667,-90.4833,1020.66,11111222 
WAVCIS,ioos:station:WAVCIS:CSI06:1,2013-01-08T16:00:00Z,28.8667,-90.4833,1021.5,11111222 
WAVCIS,ioos:station:WAVCIS:CSI06:1,2013-01-08T17:00:00Z,28.8667,-90.4833,1020.5,11111222 
WAVCIS,ioos:station:WAVCIS:CSI06:1,2013-01-08T18:00:00Z,28.8667,-90.4833,1018.8,11111222 
WAVCIS,ioos:station:WAVCIS:CSI06:1,2013-01-08T19:00:00Z,28.8667,-90.4833,1018.47,11111222 
WAVCIS,ioos:station:WAVCIS:CSI06:1,2013-01-08T20:00:00Z,28.8667,-90.4833,1017.7,11111222 
WAVCIS,ioos:station:WAVCIS:CSI06:1,2013-01-08T21:00:00Z,28.8667,-90.4833,1017.21,11111222 
WAVCIS,ioos:station:WAVCIS:CSI06:1,2013-01-08T22:00:00Z,28.8667,-90.4833,1016.66,11111222 
WAVCIS,ioos:station:WAVCIS:CSI06:1,2013-01-08T23:00:00Z,28.8667,-90.4833,1016.76,11111222 
WAVCIS,ioos:station:WAVCIS:CSI06:1,2013-01-09T00:00:00Z,28.8667,-90.4833,1016.76,11111222 
WAVCIS,ioos:station:WAVCIS:CSI06:1,2013-01-09T01:00:00Z,28.8667,-90.4833,1016.68,11111222 
WAVCIS,ioos:station:WAVCIS:CSI06:1,2013-01-09T02:00:00Z,28.8667,-90.4833,1017.2,11111222 
WAVCIS,ioos:station:WAVCIS:CSI06:1,2013-01-09T03:00:00Z,28.8667,-90.4833,1018.02,11111222 
WAVCIS,ioos:station:WAVCIS:CSI06:1,2013-01-09T04:00:00Z,28.8667,-90.4833,1018.5,11111222 
WAVCIS,ioos:station:WAVCIS:CSI06:1,2013-01-09T05:00:00Z,28.8667,-90.4833,1018.27,11111222 
WAVCIS,ioos:station:WAVCIS:CSI06:1,2013-01-09T06:00:00Z,28.8667,-90.4833,1018.55,11111222 
WAVCIS,ioos:station:WAVCIS:CSI06:1,2013-01-09T07:00:00Z,28.8667,-90.4833,1017.93,11111222 
WAVCIS,ioos:station:WAVCIS:CSI06:1,2013-01-09T08:00:00Z,28.8667,-90.4833,1017.31,11111222 
WAVCIS,ioos:station:WAVCIS:CSI06:1,2013-01-09T09:00:00Z,28.8667,-90.4833,1017.88,11111222 
WAVCIS,ioos:station:WAVCIS:CSI06:1,2013-01-09T10:00:00Z,28.8667,-90.4833,1017.59,11111222 
WAVCIS,ioos:station:WAVCIS:CSI06:1,2013-01-09T11:00:00Z,28.8667,-90.4833,1018.16,11111222 
WAVCIS,ioos:station:WAVCIS:CSI06:1,2013-01-09T12:00:00Z,28.8667,-90.4833,1018.3,11111222 
WAVCIS,ioos:station:WAVCIS:CSI06:1,2013-01-09T13:00:00Z,28.8667,-90.4833,1018.64,11111222 
WAVCIS,ioos:station:WAVCIS:CSI06:1,2013-01-09T14:00:00Z,28.8667,-90.4833,1019.06,11111222 
WAVCIS,ioos:station:WAVCIS:CSI06:1,2013-01-09T15:00:00Z,28.8667,-90.4833,1020.47,11111222 
WAVCIS,ioos:station:WAVCIS:CSI06:1,2013-01-09T16:00:00Z,28.8667,-90.4833,1021.11,11111222 
WAVCIS,ioos:station:WAVCIS:CSI06:1,2013-01-09T17:00:00Z,28.8667,-90.4833,1020.37,11111222 
WAVCIS,ioos:station:WAVCIS:CSI06:1,2013-01-09T18:00:00Z,28.8667,-90.4833,1018.96,11111222 
WAVCIS,ioos:station:WAVCIS:CSI06:1,2013-01-09T19:00:00Z,28.8667,-90.4833,1018.18,11111222 
WAVCIS,ioos:station:WAVCIS:CSI06:1,2013-01-09T20:00:00Z,28.8667,-90.4833,1017.56,11111222 
WAVCIS,ioos:station:WAVCIS:CSI06:1,2013-01-09T21:00:00Z,28.8667,-90.4833,1017.57,11111222 
WAVCIS,ioos:station:WAVCIS:CSI06:1,2013-01-09T22:00:00Z,28.8667,-90.4833,1017.62,11111222 
WAVCIS,ioos:station:WAVCIS:CSI06:1,2013-01-09T23:00:00Z,28.8667,-90.4833,1018.36,11111222 
WAVCIS,ioos:station:WAVCIS:CSI06:1,2013-01-10T00:00:00Z,28.8667,-90.4833,1019.1,11111222 
WAVCIS,ioos:station:WAVCIS:CSI06:1,2013-01-10T01:00:00Z,28.8667,-90.4833,1019.37,11111222 
WAVCIS,ioos:station:WAVCIS:CSI06:1,2013-01-10T02:00:00Z,28.8667,-90.4833,1019.93,11111222 
WAVCIS,ioos:station:WAVCIS:CSI06:1,2013-01-10T03:00:00Z,28.8667,-90.4833,1020.31,11111222 
WAVCIS,ioos:station:WAVCIS:CSI06:1,2013-01-10T04:00:00Z,28.8667,-90.4833,1020.33,11111222 
WAVCIS,ioos:station:WAVCIS:CSI06:1,2013-01-10T05:00:00Z,28.8667,-90.4833,1020.75,11111222 
WAVCIS,ioos:station:WAVCIS:CSI06:1,2013-01-10T06:00:00Z,28.8667,-90.4833,1019.85,11111222 
WAVCIS,ioos:station:WAVCIS:CSI06:1,2013-01-10T07:00:00Z,28.8667,-90.4833,1019.7,11111222 
WAVCIS,ioos:station:WAVCIS:CSI06:1,2013-01-10T08:00:00Z,28.8667,-90.4833,1018.93,11111222 
WAVCIS,ioos:station:WAVCIS:CSI06:1,2013-01-10T09:00:00Z,28.8667,-90.4833,1018.14,11111222 
WAVCIS,ioos:station:WAVCIS:CSI06:1,2013-01-10T10:00:00Z,28.8667,-90.4833,1017.59,11111222 
WAVCIS,ioos:station:WAVCIS:CSI06:1,2013-01-10T11:00:00Z,28.8667,-90.4833,1017.04,11111222 
WAVCIS,ioos:station:WAVCIS:CSI06:1,2013-01-10T12:00:00Z,28.8667,-90.4833,1017.34,11111222 
WAVCIS,ioos:station:WAVCIS:CSI06:1,2013-01-10T13:00:00Z,28.8667,-90.4833,1017.91,11111222 
WAVCIS,ioos:station:WAVCIS:CSI06:1,2013-01-10T14:00:00Z,28.8667,-90.4833,1018.8,11111222 
WAVCIS,ioos:station:WAVCIS:CSI06:1,2013-01-10T15:00:00Z,28.8667,-90.4833,1019.11,11111222 
WAVCIS,ioos:station:WAVCIS:CSI06:1,2013-01-10T16:00:00Z,28.8667,-90.4833,1022.81,11111222 
WAVCIS,ioos:station:WAVCIS:CSI06:1,2013-01-10T17:00:00Z,28.8667,-90.4833,1021.28,11111222 
WAVCIS,ioos:station:WAVCIS:CSI06:1,2013-01-10T18:00:00Z,28.8667,-90.4833,1020.09,11111222 
WAVCIS,ioos:station:WAVCIS:CSI06:1,2013-01-10T19:00:00Z,28.8667,-90.4833,1020.33,11111222 
WAVCIS,ioos:station:WAVCIS:CSI06:1,2013-01-10T20:00:00Z,28.8667,-90.4833,1019.4,11111222 
WAVCIS,ioos:station:WAVCIS:CSI06:1,2013-01-10T21:00:00Z,28.8667,-90.4833,1019.76,11111222 
WAVCIS,ioos:station:WAVCIS:CSI06:1,2013-01-10T22:00:00Z,28.8667,-90.4833,1018.14,11111222 
WAVCIS,ioos:station:WAVCIS:CSI06:1,2013-01-10T23:00:00Z,28.8667,-90.4833,1017.84,11111222 
WAVCIS,ioos:station:WAVCIS:CSI06:1,2013-01-11T00:00:00Z,28.8667,-90.4833,1014.17,11111222 
WAVCIS,ioos:station:WAVCIS:CSI06:1,2013-01-11T01:00:00Z,28.8667,-90.4833,1017.22,11111222 
WAVCIS,ioos:station:WAVCIS:CSI06:1,2013-01-11T02:00:00Z,28.8667,-90.4833,1017.9,11111222 
WAVCIS,ioos:station:WAVCIS:CSI06:1,2013-01-11T03:00:00Z,28.8667,-90.4833,1018.46,11111222 
WAVCIS,ioos:station:WAVCIS:CSI06:1,2013-01-11T04:00:00Z,28.8667,-90.4833,1018.36,11111222 
WAVCIS,ioos:station:WAVCIS:CSI06:1,2013-01-11T05:00:00Z,28.8667,-90.4833,1019.07,11111222 
WAVCIS,ioos:station:WAVCIS:CSI06:1,2013-01-11T06:00:00Z,28.8667,-90.4833,1019.02,11111222 
WAVCIS,ioos:station:WAVCIS:CSI06:1,2013-01-11T07:00:00Z,28.8667,-90.4833,1019.18,11111222 
WAVCIS,ioos:station:WAVCIS:CSI06:1,2013-01-11T08:00:00Z,28.8667,-90.4833,1018.91,11111222 
WAVCIS,ioos:station:WAVCIS:CSI06:1,2013-01-11T09:00:00Z,28.8667,-90.4833,1018.45,11111222 
WAVCIS,ioos:station:WAVCIS:CSI06:1,2013-01-11T10:00:00Z,28.8667,-90.4833,1018.11,11111222 
WAVCIS,ioos:station:WAVCIS:CSI06:1,2013-01-11T11:00:00Z,28.8667,-90.4833,1017.91,11111222 
WAVCIS,ioos:station:WAVCIS:CSI06:1,2013-01-11T12:00:00Z,28.8667,-90.4833,1018.04,11111222 
WAVCIS,ioos:station:WAVCIS:CSI06:1,2013-01-11T13:00:00Z,28.8667,-90.4833,1018.48,11111222 
WAVCIS,ioos:station:WAVCIS:CSI06:1,2013-01-11T14:00:00Z,28.8667,-90.4833,1019.18,11111222 
WAVCIS,ioos:station:WAVCIS:CSI06:1,2013-01-11T15:00:00Z,28.8667,-90.4833,1019.7,11111222 
WAVCIS,ioos:station:WAVCIS:CSI06:1,2013-01-11T16:00:00Z,28.8667,-90.4833,1019.42,11111222 
WAVCIS,ioos:station:WAVCIS:CSI06:1,2013-01-11T17:00:00Z,28.8667,-90.4833,1019.7,11111222 
WAVCIS,ioos:station:WAVCIS:CSI06:1,2013-01-11T18:00:00Z,28.8667,-90.4833,1020.25,11111222 
WAVCIS,ioos:station:WAVCIS:CSI06:1,2013-01-11T19:00:00Z,28.8667,-90.4833,1019.76,11111222 
WAVCIS,ioos:station:WAVCIS:CSI06:1,2013-01-11T20:00:00Z,28.8667,-90.4833,1016.57,11111222 
WAVCIS,ioos:station:WAVCIS:CSI06:1,2013-01-11T21:00:00Z,28.8667,-90.4833,1016.45,11111222 
WAVCIS,ioos:station:WAVCIS:CSI06:1,2013-01-11T22:00:00Z,28.8667,-90.4833,1016.8,11111222 